Regional Weather Roundup
Issued by NWS

Home | Current Version | Previous Version | Graphics & Text | Print | Product List | Glossary Off
Versions: 1 2 3 4 5 6 7 8 9 10 11 12 13 14 15 16 17 18 19 20 21 22 23 24 25 26 27 28 29 30 31 32 33 34 35 36 37 38 39 40 41 42 43 44 45 46 47 48 49 50

000
ASUS43 KMPX 282101
RWRMN
WEATHER ROUNDUP FOR MINNESOTA
NATIONAL WEATHER SERVICE TWIN CITIES/CHANHASSEN MN
400 PM CDT THU AUG 28 2014


NOTE: "FAIR" INDICATES FEW OR NO CLOUDS BELOW 12,000 FEET WITH NO
SIGNIFICANT WEATHER AND/OR OBSTRUCTIONS TO VISIBILITY. N/A MEANS
CURRENT SKY AND/OR WEATHER CONDITIONS ARE NOT AVAILABLE.

MNZ060>063-068>070-282200-
   Twin Cities Metro

CITY           SKY/WX    TMP DP  RH WIND       PRES   REMARKS
TWIN CITIES    CLOUDY    69  65  86 SE13      29.98F
ST PAUL        CLOUDY    69  64  84 SE10      29.99F
CRYSTAL        CLOUDY    70  62  76 E7        29.97F
BLAINE         CLOUDY    70  66  88 E7        29.99F
LAKEVILLE      CLOUDY    66  64  94 SE8       29.98F
EDEN PRAIRIE   CLOUDY    69  64  84 E13       29.97S
SOUTH ST PAUL  CLOUDY    69  64  85 SE3       29.98F
LAKE ELMO      CLOUDY    70  64  83 NE8       30.01S
$$
MNZ001>005-007-008-013>017-022>024-027-028-282200-
   Northwest Minnesota

CITY           SKY/WX    TMP DP  RH WIND       PRES   REMARKS
BEMIDJI        PTSUNNY   71  61  71 SE8       29.97S
HALLOCK        PTSUNNY   77  66  69 S20G26    29.85F
ROSEAU         MOSUNNY   75  64  69 S14       29.91F
WARROAD        PTSUNNY   75  66  73 S13       29.92F
THIEF RVR FALL CLOUDY    68  64  88 S6        29.93F
CROOKSTON      PTSUNNY   72  64  78 S15       29.92F
FOSSTON        CLOUDY    66  61  82 S5        29.95F
DETROIT LAKES  CLOUDY    70  61  73 S12       29.96F
MOORHEAD       DRIZZLE   72  68  88 S13       29.93S
PARK RAPIDS    CLOUDY    71  59  65 S12       29.97F
MAHNOMEN       CLOUDY    71  63  76 S9        29.94F
$$
MNZ006-009>011-018-025>026-282200-
   North Central Minnesota

CITY           SKY/WX    TMP DP  RH WIND       PRES   REMARKS
BAUDETTE       CLOUDY    72  61  68 S10       29.94F
FLAG ISLAND    PTSUNNY   70  63  78 S12       29.91F
INTL FALLS     CLOUDY    72  59  63 SE6       29.97F
WASKISH        PTSUNNY   72  61  68 S7        29.96F
BIG FORK       CLOUDY    68  61  77 SE5       30.00F
LONGVILLE      CLOUDY    72  61  68 SE8       29.99S
GRAND RAPIDS   CLOUDY    70  57  64 SE7       30.00F
CRANE LAKE     PTSUNNY   72  54  53 CALM      30.01F
ORR            PTSUNNY   72  55  56 S5        29.98F
COOK           PTSUNNY   72  55  56 CALM      30.01F
WALKER         CLOUDY    71  60  69 S7        29.98S
$$
MNZ012-019>021-037-282200-
   Northeast Minnesota

CITY           SKY/WX    TMP DP  RH WIND       PRES   REMARKS
DULUTH         PTSUNNY   68  55  63 E9        30.03F
ELY            MOSUNNY   72  52  49 S6        30.02F
HIBBING        CLOUDY    75  57  53 S8        30.01F
EVELETH        PTSUNNY   72  54  53 S5        30.03F
DULUTH HARBOR  PTSUNNY   66  61  82 NE10      30.03F
TWO HARBORS    PTSUNNY   68  55  64 E6        30.02F
SILVER BAY     PTSUNNY   66  57  72 E5        30.03F
GRAND MARAIS     N/A     63  57  81 CALM      30.06F
G MARAIS ARPRT MOSUNNY   64  48  55 S8        30.09S
$$
MNZ029>031-032-039>041-046>048-054>057-064-282200-
   West Central Minnesota

CITY           SKY/WX    TMP DP  RH WIND       PRES   REMARKS
FERGUS FALLS   DRIZZLE   68  64  88 SE8       29.94F
WHEATON        DRIZZLE   64  63  94 SE9       29.94F
MORRIS         LGT RAIN  66  66 100 SE9       29.93F
ALEXANDRIA     LGT RAIN  67  63  87 SE10      29.97F
ELBOW LAKE     RAIN      66  64  93 SE6       29.94F
WADENA         LGT RAIN  68  63  83 SE7       29.97S
GLENWOOD       LGT RAIN  66  63  88 E9        29.97S
APPLETON       LGT RAIN  68  64  88 E12       29.92F
BENSON         HVY RAIN  64  63  94 SE7       29.94F
ORTONVILLE     LGT RAIN  66  63  88 SE8       29.92S
MADISON        LGT RAIN  70  66  88 SE9       29.92S
WILLMAR        RAIN      66  63  88 E13       29.96F
$$
MNZ033>034-036-042>043-049>051-058-059-282200-
   Central Minnesota

CITY           SKY/WX    TMP DP  RH WIND       PRES   REMARKS
ST CLOUD       CLOUDY    73  61  65 SE12      29.97F
SAUK CENTRE    LGT RAIN  67  63  88 SE8       29.97S
PAYNESVILLE    LGT RAIN  64  62  93 E8        29.97S
AITKIN         CLOUDY    73  63  68 SE3       29.99S
PINE RIVER     CLOUDY    70  61  73 SE7       30.01F
BRAINERD       CLOUDY    70  61  73 SE5       29.99F
STAPLES        CLOUDY    70  59  68 SE5       29.97F
LONG PRAIRIE   DRIZZLE   68  61  77 E8        29.97F
LITTLE FALLS   CLOUDY    72  59  64 SE7       29.97F
LITCHFIELD     DRIZZLE   66  66 100 E7        29.98S
BUFFALO        DRIZZLE   67  62  84 E8        29.99F
MAPLE LAKE     CLOUDY    68  63  84 E7        29.99F
$$
MNZ037-044-045-052-053-282200-
   East Central Minnesota

CITY           SKY/WX    TMP DP  RH WIND       PRES   REMARKS
PRINCETON      CLOUDY    73  63  68 E8        29.98F
MORA           CLOUDY    70  59  68 SE5       30.01F
CAMBRIDGE      CLOUDY    73  61  64 E6        29.97F
RUSH CITY      CLOUDY    72  61  69 S7        30.01S
MOOSE LAKE     CLOUDY    73  59  60 SE6       29.99F
HINCKLEY       FAIR      73  61  64 SE7       30.00F
CLOQUET        PTSUNNY   70  55  60 E8        30.02F
MCGREGOR       CLOUDY    72  59  64 SE7       30.01F
$$
MNZ071>073-080-081-089-090-097-098-282200-
   Southwest Minnesota

CITY           SKY/WX    TMP DP  RH WIND       PRES   REMARKS
MONTEVIDEO     RAIN      66  66 100 SE10      29.94S
GRANITE FALLS  CLOUDY    65  65  97 E8        29.94F FOG
CANBY          LGT RAIN  67  65  96 E8        29.92F
MARSHALL       CLOUDY    66  64  94 E9        29.90F
REDWOOD FALLS  CLOUDY    67  65  93 E8        29.93F
OLIVIA         CLOUDY    66  63  88 E8        29.94F
PIPESTONE      DRIZZLE   70  66  88 SE6       29.91S
WINDOM         DRIZZLE   70  66  88 SE9       29.93S
WORTHINGTON    CLOUDY    70  66  88 SE10      29.93S
JACKSON        CLOUDY    70  66  88 SE10      29.94S
TRACY          CLOUDY    69  67  94 E6        29.92S FOG
SLAYTON        CLOUDY    70  67  91 CALM      29.93S
$$
MNZ065>067-074>077-082>085-091>093-282200-
   South Central Minnesota

CITY           SKY/WX    TMP DP  RH WIND       PRES   REMARKS
MANKATO        CLOUDY    70  63  78 SE10      29.95F
NEW ULM        PTSUNNY   70  70 100 E7        29.93F
ST JAMES       DRIZZLE   72  66  83 E8        29.94S
FAIRMONT       CLOUDY    66  64  94 SE9       29.93F
GLENCOE        CLOUDY    68  63  82 E9        29.96F
FARIBAULT      CLOUDY    70  63  78 E6        29.98F
OWATONNA       PTSUNNY   66  64  94 E8        29.97F
WASECA         LGT RAIN  64  59  82 E8        29.98S
ALBERT LEA     HVY RAIN  64  64 100 SE9       29.97S
$$
MNZ078>079-086>088-094>096-282200-
   Southeast Minnesota

CITY           SKY/WX    TMP DP  RH WIND       PRES   REMARKS
ROCHESTER      RAIN      65  63  93 SE13      30.00F FOG
RED WING       DRIZZLE   66  64  94 E7        29.98F
STANTON        CLOUDY    68  64  86 E7        29.97F FOG
DODGE CENTER   DRIZZLE   66  64  94 SE12      29.98F
WINONA         RAIN      70  68  94 SE8       30.00F
AUSTIN         HVY RAIN  64  63  94 E7        29.97F
PRESTON        RAIN      64  64 100 CALM      30.00F
$$
ABBREVIATIONS USED IN REMARKS
   TC - TEMPERATURES IN CELSIUS
  WCI - WIND CHILL INDEX
   HX - HEAT INDEX
  VSB - VISIBILITY
$$



USA.gov is the U.S. government's official web portal to all federal, state and local government web resources and services.